Starlink 6350

operational
NORAD ID: 57226 Int'l Des: 2023-094 Owner: SPXS Country: US Constellation: starlink
LEOCIRCULAR

Starlink 6350について

説明を読み込み中...

リアルタイム位置

3D地球を読み込み中...

次回通過

高度履歴

Altitude vs Time

uPlot chart will show altitude changes over time

軌道要素

1 57226U 23094J 25351.68474737 .00001162 00000-0 10108-3 0 9995
2 57226 43.0028 115.9739 0001084 274.2203 85.8516 15.02535128134787
Epoch: Dec 17, 2025 • Age: 16 hours

現在のステータス

高度 564.7 km
速度 7.58 km/s
衛星直下点 -24.99°S, 127.91°W
打ち上げ日 Jul 7, 2023
運用期間 2.4 years
タイプ internet

技術仕様

分類 Payload
質量 305.00 kg
乾燥質量 290.00 kg
総質量 305.00 kg
長さ 0.20 m
直径 2.80 m
スパン 9.00 m
形状 Box + pan
製造者 SPXS
バスタイプ Starlink
フェーズステータス In Orbit
所有者/国 SPXS/US

大規模コンステレーション

Loading constellations...